Weather reports worldwide

Advertisment
Holbeach, United Kingdom (3469): temperature & dewpoint: 22.10.2020 13:00:00 - 28.10.2020 13:00:00 (GMT)Holbeach, United Kingdom (3469): temperature -20cm & temperature -100cm: 22.10.2020 13:00:00 - 28.10.2020 13:00:00 (GMT)Holbeach, United Kingdom (3469): wind speed & gusts: 22.10.2020 13:00:00 - 28.10.2020 13:00:00 (GMT)Holbeach, United Kingdom (3469): wind direction: 22.10.2020 13:00:00 - 28.10.2020 13:00:00 (GMT)Holbeach, United Kingdom (3469): reduced air pressure: 22.10.2020 13:00:00 - 28.10.2020 13:00:00 (GMT)Holbeach, United Kingdom (3469): visibility: 22.10.2020 13:00:00 - 28.10.2020 13:00:00 (GMT)Holbeach, United Kingdom (3469): precipitation: 22.10.2020 13:00:00 - 28.10.2020 13:00:00 (GMT)
Date & Time tt [°C] td [°C] tt -20cm [°C] tt -100cm [°C] ff [km/h] ff [kn] fx [km/h] fx [kn] dd ppp [hPa] vv [km] rr [mm]
28.10.2020 13:00:00 12,2 7,7 - - 37 20 48 26 SW 999,2 35 0,0
28.10.2020 12:00:00 12,4 8,0 - - 37 20 - - WSW 999,5 10 0,0
28.10.2020 11:00:00 11,4 7,4 - - 35 19 50 27 WSW 999,5 10 0,0
28.10.2020 10:00:00 10,3 7,2 - - 41 22 54 29 WSW 999,3 10 0,0
28.10.2020 09:00:00 8,2 6,0 11,0 12,7 34 18 - - SW 999,0 10 0,0
28.10.2020 08:00:00 7,3 5,6 - - 31 17 - - SSW 998,6 30 0,0
28.10.2020 07:00:00 6,4 4,8 - - 29 16 - - SSW 998,1 30 0,0
28.10.2020 06:00:00 6,3 4,9 - - 26 14 - - SSW 997,6 28 0,0
28.10.2020 05:00:00 6,6 5,0 - - 26 14 - - SSW 997,6 23 0,0
28.10.2020 04:00:00 6,8 5,1 - - 28 15 - - SSW 997,5 23 0,0
28.10.2020 03:00:00 7,0 5,4 - - 26 14 - - SSW 997,4 21 0,0
28.10.2020 02:00:00 7,1 5,5 - - 28 15 - - SSW 997,4 23 0,0
28.10.2020 01:00:00 7,2 5,4 - - 28 15 - - SW 997,1 23 0,0
28.10.2020 00:00:00 7,2 5,3 - - 26 14 - - SSW 997,2 21 0,0
27.10.2020 23:00:00 7,8 5,1 - - 31 17 - - SW 996,6 26 0,0
27.10.2020 22:00:00 7,9 5,4 - - 28 15 - - WSW 996,1 24 0,0
27.10.2020 21:00:00 8,3 5,6 - - 28 15 - - WSW 995,3 27 0,0
27.10.2020 20:00:00 8,8 6,8 - - 26 14 - - SW 994,3 35 0,0
27.10.2020 19:00:00 9,9 6,1 - - 28 15 - - W 993,3 35 0,0
27.10.2020 18:00:00 10,8 8,5 - - 28 15 46 25 WSW 992,1 65 0,2
27.10.2020 17:00:00 12,2 10,6 - - 37 20 52 28 WSW 991,1 75 0,0
27.10.2020 16:00:00 11,6 11,2 - - 35 19 50 27 SSW 990,1 12 0,4
27.10.2020 15:00:00 11,0 10,5 - - 24 13 - - S 990,7 6 0,4
27.10.2020 14:00:00 10,4 9,7 - - 35 19 48 26 S 991,8 10 0,2
27.10.2020 13:00:00 9,8 9,3 - - 28 15 - - S 993,3 7 0,4
27.10.2020 12:00:00 9,5 8,9 - - 22 12 - - S 994,9 3,1 0,2
27.10.2020 11:00:00 9,6 8,2 - - 24 13 - - S 996,5 15 0,0
27.10.2020 10:00:00 8,4 7,3 - - 16 9 - - S 997,2 27 0,2
27.10.2020 09:00:00 7,9 7,1 11,2 12,7 24 13 - - SSW 997,4 17 0,0
27.10.2020 08:00:00 6,5 6,0 - - 21 11 - - SSW 998,1 21 0,0
27.10.2020 07:00:00 5,7 5,2 - - 18 10 - - S 998,2 15 0,0
27.10.2020 06:00:00 4,8 4,5 - - 18 10 - - SSW 998,3 19 0,0
27.10.2020 05:00:00 4,4 3,7 - - 16 9 - - SSW 998,5 21 0,0
27.10.2020 04:00:00 5,4 4,7 - - 21 11 - - SW 998,4 28 0,0
27.10.2020 03:00:00 5,3 4,7 - - 22 12 - - SW 998,4 25 0,0
27.10.2020 02:00:00 5,5 4,7 - - 21 11 - - SW 998,7 25 0,0
27.10.2020 01:00:00 5,9 5,0 - - 22 12 - - SW 998,6 25 0,0
27.10.2020 00:00:00 6,3 5,2 - - 18 10 - - SW 998,5 26 0,0
26.10.2020 23:00:00 6,9 5,5 - - 26 14 - - SW 998,6 27 0,0
26.10.2020 22:00:00 7,6 5,9 - - 28 15 - - WSW 998,3 30 0,0
26.10.2020 21:00:00 7,4 5,9 - - 24 13 - - SW 997,8 30 0,0
26.10.2020 20:00:00 7,9 5,8 - - 22 12 - - SW 997,5 40 0,0
26.10.2020 19:00:00 9,0 6,4 - - 22 12 - - WSW 997,0 40 0,0
26.10.2020 18:00:00 9,4 6,3 - - 22 12 - - WSW 996,5 45 0,0
26.10.2020 17:00:00 10,2 7,0 - - 16 9 - - W 995,9 45 0,0
26.10.2020 16:00:00 11,3 7,9 - - 16 9 46 25 W 995,3 40 0,0
26.10.2020 15:00:00 12,4 8,6 - - 29 16 - - WSW 994,7 40 0,0
26.10.2020 14:00:00 12,3 8,6 - - 28 15 48 26 WSW 994,3 45 0,0
26.10.2020 13:00:00 12,6 9,3 - - 31 17 48 26 WSW 994,0 10 0,0
26.10.2020 12:00:00 10,2 8,9 - - 26 14 48 26 SW 994,2 35 0,0
26.10.2020 11:00:00 10,2 7,7 - - 35 19 46 25 SW 994,0 40 0,0
26.10.2020 10:00:00 9,4 7,1 - - 31 17 - - SSW 993,7 30 0,0
26.10.2020 09:00:00 7,9 6,2 11,7 12,9 31 17 - - SW 993,7 10 0,0
26.10.2020 08:00:00 6,0 5,1 - - 24 13 - - SSW 993,8 35 0,0
26.10.2020 07:00:00 5,3 4,5 - - 22 12 - - SSW 993,4 30 0,2
26.10.2020 06:00:00 5,4 4,6 - - 24 13 - - SSW 993,3 30 0,0
26.10.2020 05:00:00 5,6 4,8 - - 24 13 - - SSW 993,2 30 0,0
26.10.2020 04:00:00 5,8 5,0 - - 24 13 - - SSW 993,4 30 0,0
26.10.2020 03:00:00 6,1 5,3 - - 24 13 - - SSW 993,4 30 0,0
26.10.2020 02:00:00 6,3 5,5 - - 21 11 - - SSW 993,9 30 0,0
26.10.2020 01:00:00 6,8 5,7 - - 24 13 - - SSW 994,2 35 0,0
26.10.2020 00:00:00 7,0 5,9 - - 22 12 - - SSW 994,4 40 0,0
25.10.2020 23:00:00 6,9 6,0 - - 21 11 - - SSW 994,5 30 0,0
25.10.2020 22:00:00 7,2 6,2 - - 18 10 - - SSW 994,6 35 0,0
25.10.2020 21:00:00 8,0 6,5 - - 21 11 - - SSW 995,0 65 0,0
25.10.2020 20:00:00 8,4 7,0 - - 18 10 - - SSW 994,9 60 0,0
25.10.2020 19:00:00 7,8 6,2 - - 11 6 - - SSW 994,6 35 0,0
25.10.2020 18:00:00 9,0 6,8 - - 26 14 - - SW 994,7 65 0,0
25.10.2020 17:00:00 9,0 6,4 - - 18 10 - - SSW 994,4 75 0,0
25.10.2020 16:00:00 11,1 8,0 - - 15 8 - - SSW 994,0 40 0,0
25.10.2020 15:00:00 11,8 6,5 - - 29 16 46 25 SW 993,9 50 0,0
25.10.2020 14:00:00 13,0 7,5 - - 37 20 46 25 SW 993,9 55 0,0
25.10.2020 13:00:00 12,8 8,2 - - 35 19 48 26 SSW 994,3 50 0,0
25.10.2020 12:00:00 12,3 8,2 - - 31 17 52 28 SSW 994,3 45 0,0
25.10.2020 11:00:00 11,7 7,8 - - 35 19 46 25 SSW 994,7 45 0,0
25.10.2020 10:00:00 10,4 7,4 - - 31 17 48 26 SSW 994,7 40 0,0
25.10.2020 09:00:00 9,8 7,0 12,0 12,9 31 17 - - SSW 995,0 40 0,0
25.10.2020 08:00:00 8,5 6,8 - - 29 16 - - SSW 994,8 45 0,0
25.10.2020 07:00:00 7,7 6,4 - - 24 13 - - SSW 994,4 40 0,0
25.10.2020 06:00:00 7,8 6,9 - - 26 14 - - SSW 993,8 35 0,0
25.10.2020 05:00:00 7,7 7,0 - - 18 10 - - S 994,2 40 0,0
25.10.2020 04:00:00 8,1 6,8 - - 21 11 - - SSW 994,0 50 0,0
25.10.2020 03:00:00 8,3 6,7 - - 21 11 - - SSW 993,7 75 0,0
25.10.2020 02:00:00 9,5 7,5 - - 24 13 - - SW 993,7 65 0,0
25.10.2020 01:00:00 10,6 9,5 - - 22 12 - - SW 993,6 60 0,0
25.10.2020 00:00:00 - - - - - - - - - - - -
24.10.2020 23:00:00 11,1 10,1 - - 22 12 - - SSW 992,2 65 0,8
24.10.2020 22:00:00 11,3 9,7 - - 31 17 50 27 SW 992,6 30 0,0
24.10.2020 21:00:00 11,7 10,3 - - 41 22 54 29 SW 991,8 60 1,0
24.10.2020 20:00:00 12,7 11,8 - - 29 16 54 29 SSW 991,8 14 0,6
24.10.2020 19:00:00 13,4 12,0 - - 35 19 55 30 SW 992,4 22 0,4
24.10.2020 18:00:00 13,5 12,1 - - 44 24 76 41 SW 992,8 11 0,4
24.10.2020 17:00:00 15,1 12,3 - - 39 21 68 37 S 992,7 45 0,0
24.10.2020 16:00:00 14,5 12,5 - - 35 19 59 32 S 993,7 50 0,0
24.10.2020 15:00:00 14,7 12,0 - - 37 20 63 34 S 995,4 50 0,0
24.10.2020 14:00:00 14,5 11,8 - - 44 24 67 36 S 996,8 50 0,0
24.10.2020 13:00:00 14,3 11,5 - - 41 22 63 34 S 998,1 45 0,0
24.10.2020 12:00:00 13,5 11,3 - - 39 21 61 33 S 999,3 45 0,0
24.10.2020 11:00:00 12,7 10,4 - - 42 23 63 34 SSW 1000,1 45 0,0
24.10.2020 10:00:00 11,6 9,5 - - 39 21 55 30 SSW 1000,9 35 0,0
24.10.2020 09:00:00 10,4 8,4 12,0 13,0 35 19 52 28 SSW 1001,6 30 0,0
24.10.2020 08:00:00 9,5 7,5 - - 35 19 48 26 S 1002,0 30 0,0
24.10.2020 07:00:00 8,4 6,5 - - 24 13 - - S 1002,6 35 0,0
24.10.2020 06:00:00 7,8 5,8 - - 22 12 - - S 1003,9 30 0,0
24.10.2020 05:00:00 7,2 5,2 - - 22 12 - - S 1004,9 30 0,0
24.10.2020 04:00:00 6,8 4,9 - - 21 11 - - S 1005,2 30 0,0
24.10.2020 03:00:00 6,2 4,8 - - 18 10 - - SSW 1006,2 29 0,0
24.10.2020 02:00:00 6,1 4,7 - - 24 13 - - SSW 1007,1 29 0,0
24.10.2020 01:00:00 6,1 4,6 - - 22 12 - - SSW 1007,6 35 0,0
24.10.2020 00:00:00 6,5 4,8 - - 18 10 - - SSW 1007,8 35 0,0
23.10.2020 23:00:00 6,9 5,0 - - 18 10 - - SW 1008,1 40 0,0
23.10.2020 22:00:00 7,1 5,2 - - 15 8 - - SW 1008,1 40 0,0
23.10.2020 21:00:00 7,8 6,1 - - 15 8 - - SW 1008,3 40 0,0
23.10.2020 20:00:00 8,5 6,7 - - 11 6 - - WSW 1007,7 50 0,0
23.10.2020 19:00:00 9,3 7,6 - - 15 8 - - WSW 1007,2 55 0,0
23.10.2020 18:00:00 10,4 8,3 - - 18 10 - - WSW 1006,5 65 0,0
23.10.2020 17:00:00 11,4 8,0 - - 18 10 50 27 W 1005,8 75 0,0
23.10.2020 16:00:00 13,5 10,2 - - 28 15 - - SW 1005,0 75 0,0
23.10.2020 15:00:00 13,7 10,3 - - 28 15 - - WSW 1004,5 75 0,0
23.10.2020 14:00:00 14,2 10,9 - - 26 14 - - SW 1004,3 75 0,0
23.10.2020 13:00:00 13,7 11,2 - - 21 11 - - SW 1004,6 55 0,0
23.10.2020 12:00:00 13,2 11,0 - - 18 10 - - WSW 1005,3 55 0,0
23.10.2020 11:00:00 13,1 10,9 - - 22 12 - - SW 1005,7 22 0,0
23.10.2020 10:00:00 13,4 11,5 - - 24 13 - - SW 1005,3 40 0,0
23.10.2020 09:00:00 12,2 11,2 12,2 13,0 26 14 - - SW 1005,7 22 0,0
23.10.2020 08:00:00 11,3 11,1 - - 22 12 - - SSW 1005,3 11 1,4
23.10.2020 07:00:00 10,3 10,1 - - 13 7 - - S 1005,5 2,4 0,8
23.10.2020 06:00:00 9,6 9,3 - - 9 5 - - S 1006,0 6 1,0
23.10.2020 05:00:00 8,6 8,0 - - 8 4 - - SSE 1006,7 21 0,0
23.10.2020 04:00:00 7,9 7,2 - - 5 3 - - S 1007,2 30 0,0
23.10.2020 03:00:00 7,2 6,5 - - 5 3 - - SSE 1008,0 29 0,0
23.10.2020 02:00:00 6,9 6,5 - - 11 6 - - SSW 1008,9 25 0,0
23.10.2020 01:00:00 5,7 5,2 - - 8 4 - - SSW 1009,3 14 0,0
23.10.2020 00:00:00 5,8 5,2 - - 11 6 - - S 1009,3 25 0,0
22.10.2020 23:00:00 6,0 4,5 - - 8 4 - - WSW 1009,4 29 0,0
22.10.2020 22:00:00 8,0 6,4 - - 13 7 - - SW 1009,6 45 0,0
22.10.2020 21:00:00 8,0 6,5 - - 11 6 - - SW 1009,6 45 0,0
22.10.2020 20:00:00 7,5 5,6 - - 11 6 - - WSW 1009,2 45 0,0
22.10.2020 19:00:00 9,1 6,4 - - 18 10 - - SW 1009,0 50 0,0
22.10.2020 18:00:00 9,1 6,1 - - 16 9 - - SW 1008,7 50 0,0
22.10.2020 17:00:00 10,4 6,2 - - 18 10 - - WSW 1008,0 65 0,0
22.10.2020 16:00:00 12,4 7,1 - - 26 14 - - WSW 1007,5 75 0,0
22.10.2020 15:00:00 13,4 7,5 - - 31 17 - - WSW 1007,1 75 0,0
22.10.2020 14:00:00 13,6 7,6 - - 31 17 46 25 WSW 1006,6 75 0,0
22.10.2020 13:00:00 13,7 8,4 - - 37 20 - - W 1006,5 10 0,0

tt = temperature
td = dewpoint
tt -20cm = temperature -20cm
tt -100cm = temperature -100cm
ff = wind speed
fx = gusts
dd = wind direction
ppp = reduced air pressure
vv = visibility
rr = precipitation

Next stations